Regional Weather Roundup
Issued by NWS Little Rock, AR

Home | Current Version | Previous Version | Graphics & Text | Print | Product List | Glossary On
Versions: 1 2 3 4 5 6 7 8 9 10 11 12 13 14 15 16 17 18 19 20 21 22 23 24 25 26 27 28 29 30 31 32 33 34 35 36 37 38 39 40 41 42 43 44 45 46 47 48 49 50
128
ASUS44 KLZK 220305
RWRLZK

WEATHER ROUNDUP FOR ARKANSAS
NATIONAL WEATHER SERVICE LITTLE ROCK AR
1000 PM CDT SAT OCT 21 2017

NOTE: "FAIR" INDICATES FEW OR NO CLOUDS BELOW 12,000 FEET WITH NO
SIGNIFICANT WEATHER AND/OR OBSTRUCTIONS TO VISIBILITY.

ARZ001-003-010-029-220400-
NORTHWEST ARKANSAS

CITY           SKY/WX    TMP DP  RH WIND       PRES   REMARKS
FAYETTEVILLE   CLOUDY    73  67  81 SE10G30   29.90S
FORT SMITH     CLOUDY    75  69  81 E7        29.88R
HARRISON       CLOUDY    72  67  84 S13       29.96R
BENTONVILLE    CLOUDY    70  65  84 SE9       29.93R
ROGERS         CLOUDY    72  66  81 SE12      29.92R
SILOAM SPGS    CLOUDY    71  66  84 SE14      29.89S
HIGHFILL       CLOUDY    72  67  84 S16       29.91R
$$

ARZ004-005-016-220400-
NORTH CENTRAL ARKANSAS

CITY           SKY/WX    TMP DP  RH WIND       PRES   REMARKS
BATESVILLE     CLOUDY    74  63  68 SE9       29.98F
FLIPPIN        PTCLDY    73  67  81 VRB7      29.93F
MTN HOME       MOCLDY    71  67  87 S10       29.93S
$$

ARZ040-041-220400-
WEST CENTRAL ARKANSAS

CITY           SKY/WX    TMP DP  RH WIND       PRES   REMARKS
MENA           MOCLDY    79  75  89 SE6       29.94R
$$

ARZ009-017-025-026-028-220400-
NORTHEAST ARKANSAS

CITY           SKY/WX    TMP DP  RH WIND       PRES   REMARKS
CORNING        FAIR      73  64  73 SE15G24   30.01F
JONESBORO      PTCLDY    73  64  73 SE10      30.02F
NEWPORT        CLOUDY    73  64  73 SE17      30.00F
WALNUT RIDGE     N/A    N/A N/A N/A MISG        N/A
BLYTHEVILLE    PTCLDY    71  63  75 S8        30.05F
$$

ARZ022-023-033-042-044-220400-
CENTRAL ARKANSAS

CITY           SKY/WX    TMP DP  RH WIND       PRES   REMARKS
LITTLE ROCK    MOCLDY    73  69  87 SE13      29.97S
N LITTLE ROCK    N/A     74  68  82 S9        29.98S
JACKSONVILLE   CLEAR     75  68  78 SE8       29.97S
SEARCY         CLOUDY    74  67  78 SE7       29.99S
HOT SPRINGS    PTCLDY    75  71  87 SE10      29.96R
RUSSELLVILLE   PTCLDY    75  69  81 VRB5      29.92F
CLINTON        CLOUDY    73  68  83 VRB5      29.96F
$$

ARZ036-220400-
EAST ARKANSAS

CITY           SKY/WX    TMP DP  RH WIND       PRES   REMARKS
WEST MEMPHIS   CLOUDY    72  64  76 SE18      30.04S
$$

ARZ050-053-066-070-073-220400-
SOUTHWEST ARKANSAS

CITY           SKY/WX    TMP DP  RH WIND       PRES   REMARKS
ARKADELPHIA    FAIR      74  70  87 S6        29.97R
CAMDEN         CLOUDY    73  68  83 SE7G14    29.97S
TEXARKANA      CLOUDY    77  70  79 SE12      29.93S
EL DORADO      CLEAR     73  72  96 SE9       29.99R
DE QUEEN       MOCLDY    77  71  82 SE7       29.89F
$$

ARZ056-057-069-220400-
SOUTHEAST ARKANSAS

CITY           SKY/WX    TMP DP  RH WIND       PRES   REMARKS
PINE BLUFF     PTCLDY    73  67  81 SE14      30.00R
STUTTGART      CLOUDY    73  66  78 SE9       30.01R
MONTICELLO     CLOUDY    72  68  87 SE8       30.03R

$$






USA.gov is the U.S. government's official web portal to all federal, state and local government web resources and services.